Flag for U.S.A. Weather past 2 weeks in Montpelier, Vermont, U.S.A.

Now
66 °F

Sunny.


Feels Like: 66 °F
Forecast: 48 / 68 °F
Wind: 13 mph from Northwest

Location: Knapp State Airport

Current Time: May 5, 2015 at 2:30:35 PM

Latest Report: May 5, 2015 at 1:51 PM


Visibility: 10 mi

Pressure: 30.28 "Hg

Humidity: 21%

Dew point: 25 °F

Location of MontpelierLocation

Historic Weather in Montpelier — Graph

°F

Montpelier temperature yesterday

Maximum temperature yesterday: 79 °F (at 1:51 PM)
Minimum temperature yesterday: 41 °F (at 5:51 AM)
Average temperature yesterday: 64 °F

Past Weeks' High & Low Weather Summary

 TemperatureHumidityPressure
High79 °F (May 4, 1:51 PM)100% (Apr 21, 6:51 AM)30.29 "Hg (Apr 21, 6:51 AM)
Low30 °F (Apr 25, 1:51 AM)19% (May 4, 1:51 PM)29.55 "Hg (Apr 23, 4:51 AM)
Average46 °F66%29.85 "Hg
* Reported Apr 20 12:51 PM — May 5 12:51 PM, Montpelier, Weather by CustomWeather, © 2015

Note: Actual official high and low records may vary slightly from our data, if they occured in-between our weather recording intervals... More about our weather records

Advertising

Montpelier weather history for previous 24 hours

 ConditionsComfort  
Time TempWeatherWind HumidityBarometerVisibility
12:51 PM
Tue, May 5
64 °FSunny.13 mph23%30.27 "Hg10 mi
11:51 AM62 °FSunny.6 mph38%30.28 "Hg10 mi
10:51 AM61 °FSunny.12 mph42%30.29 "Hg10 mi
9:51 AM56 °FSunny.8 mph58%30.29 "Hg10 mi
8:51 AM57 °FPassing clouds.8 mph60%30.28 "Hg10 mi
7:51 AM55 °FPassing clouds.7 mph74%30.26 "Hg10 mi
6:51 AM55 °FPassing clouds.10 mph74%30.24 "Hg10 mi
5:51 AM56 °FPassing clouds.8 mph77%30.20 "Hg10 mi
4:51 AM56 °FClear.7 mph81%30.17 "Hg10 mi
3:51 AM58 °FPassing clouds.8 mph78%30.15 "Hg10 mi
2:51 AM59 °FMostly cloudy.7 mph84%30.14 "Hg10 mi
1:51 AM60 °FOvercast.7 mph78%30.11 "Hg10 mi
12:51 AM62 °FMostly cloudy.5 mph70%30.08 "Hg10 mi
11:51 PM
Mon, May 4
65 °FOvercast.3 mph52%30.06 "Hg10 mi
10:51 PM66 °FOvercast.6 mph49%30.07 "Hg10 mi
9:51 PM68 °FOvercast.8 mph40%30.07 "Hg10 mi
8:51 PM73 °FLight rain. Overcast.3 mph27%30.05 "Hg10 mi
7:51 PM75 °FOvercast.6 mph22%30.04 "Hg10 mi
6:51 PM76 °FScattered clouds.9 mph21%30.03 "Hg10 mi
5:51 PM78 °FPartly sunny.14 mph19%30.04 "Hg10 mi
4:51 PM79 °FPartly sunny.10 mph19%30.03 "Hg10 mi
3:51 PM79 °FPartly sunny.18 mph20%30.06 "Hg10 mi
2:51 PM79 °FScattered clouds.17 mph20%30.07 "Hg10 mi
Weather by CustomWeather, © 2015

See weather overviewHow to use our weather pages